User: anonymous   Login
Location: Unspecified
(0.0000°N, 0.0000°E)
Time: 16:42:20
(UTC+00:00)
Language:

SBIRS GEO 2 (USA 241) - Orbit

View from above orbital plane
View from above orbital plane
View from above satellite
View from above satellite

Ground track
Ground track

The orbit data is extracted from the following two-line orbital elements,

1 39120U 13011A   17033.46898781 0.00000000  00000-0  00000-0 0    09
2 39120   3.8360 322.2805 0003976 123.3660 236.6896  1.00270000    05
Epoch (UTC): 02 February 2017 11:15:20
Eccentricity: 0.0003976
inclination: 3.8360°
perigee height: 35770 km
apogee height: 35803 km
right ascension of ascending node: 322.2805°
argument of perigee: 123.3660°
revolutions per day: 1.00270000
mean anomaly at epoch: 236.6896°
orbit number at epoch: 0

The dashed part of the orbit path shows where the satellite is in the earth's shadow,  

DLR